GFSNIL_sfc_rhum_117.txt.gz
RH
52 54 57 65 80 80 82 77 67 71 73 69 70 72 75 79 80 79 84 85 82 77
58 62 71 73 71 72 72 70 68 69 70 70 75 78 77 82 85 84 87 90 90 89
90 91 90 88 94 93 91 89 90 90 88 94 95 97 98 98 98 97 94 92 93 93
91 89 89 91 91 92 90 90 88 90 91 91 90 88 88 92 92 94 95 96 97 98
82 84 87 86 86 83 85 82 86 87 88 89 89 88 89 90 88 90 92 92 93 93
85 85 84 81 77 77 74 72 70 72 85 87 84 80 81 81 82 84 85 89 92 92
66 75 74 76 73 77 79 69 62 56 55 55 58 60 55 57 59 60 65 77 85 86
60 63 61 53 47 47 61 76 62 45 43 40 42 54 64 54 49 49 49 51 51 58
49 54 60 53 47 44 43 40 43 44 45 48 39 60 60 57 46 49 51 57 56 52
45 50 53 54 54 53 47 42 43 44 45 44 43 59 63 64 50 58 62 57 53 48
45 46 47 51 49 46 44 49 51 47 46 47 44 61 67 64 55 59 57 51 49 48
40 41 43 48 50 52 53 57 56 50 54 56 51 62 66 61 56 52 51 43 42 46
42 43 49 50 52 54 53 53 56 55 58 52 50 56 63 61 50 46 48 45 43 50
41 42 45 51 53 56 55 56 57 53 44 43 44 46 57 62 55 57 58 52 50 49

GFSNIL_sfc_rhum_120.txt.gz
RH
65 73 74 76 84 92 91 96 96 95 91 90 92 94 96 96 97 95 94 92 93 90
97 96 96 97 95 96 96 91 96 95 95 93 90 90 89 91 93 94 94 93 91 90
92 92 92 92 94 94 93 91 93 94 92 93 91 95 96 96 94 97 97 96 96 95
91 90 90 90 88 90 87 89 91 90 89 89 89 88 89 89 90 92 92 92 93 93
81 81 82 80 78 74 74 72 78 83 84 83 82 82 86 88 90 89 90 90 91 93
78 76 79 80 76 75 68 64 60 63 70 75 78 76 73 73 71 79 85 89 89 92
76 74 70 63 70 77 77 73 62 54 50 55 63 69 73 76 72 61 62 68 72 75
68 72 72 70 62 60 66 77 77 74 67 63 63 66 71 64 76 79 76 72 61 64
67 66 76 80 79 75 74 60 68 73 75 78 69 76 72 68 67 64 66 66 64 59
54 65 72 75 71 73 74 70 62 61 57 60 63 67 67 59 65 72 66 62 60 52
54 54 56 61 62 61 60 65 66 64 63 65 57 64 65 62 68 69 66 60 58 58
54 55 60 63 68 70 69 72 72 66 68 68 63 61 64 65 72 63 63 52 53 56
55 58 65 66 70 70 70 69 70 64 66 55 63 56 62 64 64 69 65 62 56 59
54 55 63 67 69 69 68 67 69 64 59 56 54 57 59 62 57 64 66 70 70 68

GFSNIL_sfc_rhum_123.txt.gz
RH
83 82 81 84 96 98 97 98 97 93 92 85 92 96 99 98 98 98 98 98 99 97
94 94 94 94 93 92 92 88 92 94 95 95 96 98 98 99 98 99 99 99 98 98
91 90 90 92 92 91 91 89 90 91 90 91 93 92 94 95 95 96 97 96 96 95
86 83 82 83 83 83 84 87 87 84 85 88 85 90 93 89 88 90 90 90 90 91
76 75 80 78 77 70 70 74 80 75 76 76 82 82 80 85 82 84 88 88 88 86
85 82 74 73 74 74 72 64 57 58 64 67 70 72 75 69 66 68 74 78 81 80
88 88 83 78 69 72 73 74 70 63 62 66 68 70 67 75 76 75 78 78 74 73
74 80 83 82 76 72 68 72 74 76 76 73 70 70 72 74 79 80 79 76 70 76
72 72 79 80 80 82 82 74 78 83 83 86 79 82 77 73 77 73 71 72 73 66
60 71 72 73 73 74 80 80 81 75 80 75 70 72 76 67 73 74 71 67 65 54
60 61 63 67 69 69 70 75 78 83 82 73 62 65 65 66 73 73 70 66 62 61
61 66 69 72 73 74 74 74 74 70 70 72 64 62 65 69 74 72 73 64 62 63
63 66 70 74 74 73 71 68 70 65 67 56 63 59 63 65 71 76 72 68 67 66
60 62 65 70 75 73 70 69 70 64 63 60 60 62 60 62 62 72 72 77 78 75

GFSNIL_sfc_rhum_126.txt.gz
RH
88 96 95 93 94 92 93 93 86 89 90 90 96 96 92 89 95 96 97 96 98 96
87 89 93 91 90 92 88 86 92 89 90 91 91 94 98 98 99 98 98 99 98 99
84 82 81 81 82 83 87 87 86 87 87 87 90 91 92 94 92 94 96 96 96 97
81 78 78 80 80 76 73 82 81 77 78 85 85 88 90 87 88 90 92 88 86 87
78 77 79 80 77 74 77 68 78 81 80 73 76 84 85 91 88 84 87 84 82 85
86 87 86 83 79 74 73 74 71 66 69 71 72 74 80 76 83 86 86 84 83 84
94 92 87 83 80 80 76 75 76 74 74 72 72 71 73 73 76 75 75 77 82 81
83 84 84 85 80 78 78 81 80 77 77 76 73 71 74 76 77 76 74 74 72 78
79 81 85 84 82 82 81 77 78 84 87 90 78 78 72 74 73 70 70 75 77 77
65 74 76 72 72 77 81 80 82 83 78 77 74 71 73 71 74 79 77 76 77 65
65 70 72 74 74 75 76 79 80 86 81 77 67 70 66 67 74 77 77 72 67 64
65 72 73 78 78 78 78 78 78 74 76 72 74 65 63 69 76 74 73 69 74 73
66 70 73 78 78 77 76 73 76 70 72 59 69 61 62 66 71 80 76 76 73 70
63 67 67 73 78 78 74 74 75 73 73 70 66 70 64 66 74 78 79 81 80 78

GFSNIL_sfc_rhum_129.txt.gz
RH
79 85 86 87 91 92 94 93 89 90 89 90 87 84 86 95 96 96 97 96 93 92
86 83 83 80 81 84 85 81 83 84 86 86 88 90 92 96 98 98 98 98 98 98
79 78 78 79 81 77 77 81 82 79 79 84 86 87 89 93 92 94 96 95 94 96
84 82 85 79 77 78 76 74 77 80 81 80 82 82 87 87 88 88 86 85 88 87
89 85 83 79 78 76 77 76 77 74 77 79 80 85 85 86 88 88 89 87 85 89
95 95 94 91 80 76 75 77 75 74 76 75 74 75 79 86 83 82 85 89 86 85
92 93 94 90 87 82 77 78 77 73 75 75 74 72 75 76 75 77 81 82 85 81
84 88 90 90 89 86 85 84 88 84 84 79 76 68 77 72 73 75 76 79 75 77
80 82 86 85 83 87 86 84 83 86 85 85 77 71 69 72 74 73 73 79 80 76
68 75 77 76 75 79 84 87 89 86 80 79 79 66 66 69 75 80 78 81 79 64
67 72 75 77 79 78 82 83 85 84 84 79 71 67 66 66 75 78 79 79 71 75
66 73 74 77 81 81 82 80 84 79 80 78 80 64 62 70 78 76 78 72 73 71
68 70 72 76 81 79 79 74 76 71 79 64 76 71 67 74 81 82 80 78 76 73
65 67 68 74 79 80 76 77 82 77 83 83 85 78 63 64 80 79 87 87 85 83

GFSNIL_sfc_rhum_132.txt.gz
RH
86 87 84 79 84 88 89 89 83 83 84 84 84 88 89 93 90 90 93 96 94 94
88 88 88 84 80 85 86 78 80 80 79 82 85 84 87 92 94 95 98 98 98 98
88 84 86 86 81 79 78 75 78 80 84 83 85 82 86 89 86 89 92 93 93 94
93 90 90 88 86 82 80 78 77 76 77 82 83 86 86 87 88 87 89 89 89 91
95 95 95 94 87 75 74 76 78 77 76 77 75 78 86 88 88 90 90 88 90 93
90 92 94 94 92 87 84 78 75 72 77 76 78 77 78 79 83 87 89 90 87 86
87 90 92 92 92 91 92 93 93 89 85 80 76 72 73 73 78 78 79 80 82 81
81 87 88 90 90 90 88 88 92 91 88 86 78 66 77 80 82 84 80 80 77 77
79 80 84 80 79 82 84 89 89 89 87 91 80 66 69 72 80 78 79 86 85 78
68 75 78 78 77 79 84 85 88 89 87 86 87 65 67 68 80 85 84 80 78 72
66 73 76 76 79 81 82 85 85 85 82 85 74 63 66 68 82 85 84 82 82 78
66 73 73 73 80 80 81 80 82 80 81 81 81 70 67 79 87 85 85 78 76 80
70 71 71 73 80 79 80 73 77 71 82 67 83 76 60 83 89 91 91 88 83 75
69 70 68 73 80 80 76 78 85 79 88 87 90 89 66 64 82 82 85 85 84 83

GFSNIL_sfc_rhum_138.txt.gz
RH
59 56 54 56 57 59 60 58 58 60 62 62 65 68 73 83 83 81 88 89 89 90
60 61 62 60 57 58 59 54 57 59 58 56 56 62 70 79 79 77 83 89 90 89
60 60 61 59 61 58 53 53 56 56 57 58 58 61 64 72 77 75 76 77 81 85
55 56 53 51 49 47 45 46 47 47 50 52 54 53 59 61 65 69 70 68 70 72
47 45 42 40 44 43 42 44 48 49 49 51 51 48 52 57 62 63 66 63 64 65
43 44 44 45 45 43 42 40 42 44 47 48 51 50 47 50 52 54 57 58 58 58
39 40 44 46 45 46 44 42 43 44 48 50 47 50 46 47 46 46 50 54 56 56
40 44 46 46 43 41 41 45 48 48 51 51 48 51 52 50 50 50 48 53 52 57
39 41 44 44 44 42 43 41 44 50 57 58 52 63 66 60 52 51 51 55 54 50
41 41 44 45 44 43 42 45 46 48 54 55 53 64 65 66 56 60 59 59 57 52
43 42 45 46 42 40 39 45 50 48 52 56 55 60 66 67 55 56 57 54 52 53
46 52 49 45 43 41 42 45 47 47 51 52 53 74 61 57 54 50 50 48 46 53
52 54 53 46 47 47 44 41 45 46 50 54 52 65 60 61 51 48 50 45 46 57
52 57 54 53 53 50 49 52 52 51 49 49 53 54 70 66 53 52 53 50 49 51

GFSNIL_sfc_rhum_144.txt.gz
RH
64 70 69 68 70 72 73 75 68 72 72 71 71 72 76 72 80 77 84 84 85 83
67 66 69 66 65 70 66 51 56 60 60 62 64 66 71 83 84 82 84 91 86 85
69 65 63 62 61 56 53 51 54 55 57 59 62 61 65 76 79 80 82 82 83 84
70 65 61 56 51 49 50 50 53 54 56 56 60 62 63 67 71 72 76 77 78 77
72 64 58 53 47 46 47 47 49 51 53 55 57 63 61 64 64 67 73 74 74 74
73 62 56 50 49 48 46 45 44 46 51 56 59 60 57 57 60 61 66 70 73 76
71 60 54 54 52 52 50 47 46 47 49 56 56 64 67 60 59 59 59 65 68 74
69 61 56 54 52 48 48 49 51 51 53 58 58 62 74 72 68 63 64 67 63 70
66 59 54 55 55 50 50 46 49 52 59 67 57 64 64 66 75 66 67 70 68 64
64 58 57 56 55 54 50 50 50 54 60 62 69 64 64 61 74 69 71 68 67 60
68 63 57 57 53 51 50 51 57 55 55 60 61 65 63 60 74 68 65 63 60 64
71 67 62 61 62 52 50 51 56 57 62 62 62 69 66 66 74 68 64 56 56 62
74 66 63 62 64 59 52 50 63 58 62 60 60 69 66 69 76 72 64 63 57 52
74 68 61 68 64 64 64 63 60 60 58 57 62 60 68 68 76 72 73 72 68 66